TimeEST,TemperatureF,Dew PointF,Humidity,Sea Level PressureIn,VisibilityMPH,Wind Direction,Wind SpeedMPH,Gust SpeedMPH,PrecipitationIn,Events,Conditions,WindDirDegrees,DateUTC
12:53 AM,25.0,21.9,88,30.27,9.0,SSW,6.9,-,N/A,,Clear,200,2012-12-12 05:53:00
1:53 AM,25.0,21.0,85,30.29,9.0,SSW,6.9,-,N/A,,Clear,210,2012-12-12 06:53:00
2:53 AM,24.1,21.0,88,30.30,8.0,SSW,5.8,-,N/A,,Clear,200,2012-12-12 07:53:00
3:53 AM,24.1,19.9,84,30.32,9.0,SW,5.8,-,N/A,,Clear,220,2012-12-12 08:53:00
4:53 AM,21.9,19.9,92,30.33,8.0,South,5.8,-,N/A,,Clear,190,2012-12-12 09:53:00
5:53 AM,21.9,19.9,92,30.35,7.0,South,8.1,-,N/A,,Clear,180,2012-12-12 10:53:00
6:53 AM,21.9,19.0,89,30.38,7.0,South,5.8,-,N/A,,Clear,190,2012-12-12 11:53:00
7:53 AM,21.9,19.0,89,30.38,5.0,South,4.6,-,N/A,,Clear,180,2012-12-12 12:53:00
8:53 AM,25.0,23.0,92,30.40,6.0,South,5.8,-,N/A,,Clear,180,2012-12-12 13:53:00
9:53 AM,28.9,25.0,85,30.41,7.0,SSW,5.8,-,N/A,,Clear,200,2012-12-12 14:53:00
10:53 AM,32.0,26.1,79,30.43,9.0,SSW,6.9,-,N/A,,Clear,210,2012-12-12 15:53:00
11:53 AM,35.1,26.1,70,30.42,10.0,South,6.9,-,N/A,,Clear,190,2012-12-12 16:53:00
12:53 PM,37.0,25.0,62,30.41,10.0,SSW,6.9,-,N/A,,Clear,200,2012-12-12 17:53:00
1:53 PM,37.9,25.0,60,30.40,10.0,WSW,5.8,-,N/A,,Clear,250,2012-12-12 18:53:00
2:53 PM,39.0,24.1,55,30.39,10.0,WSW,4.6,-,N/A,,Clear,250,2012-12-12 19:53:00
3:53 PM,37.9,25.0,60,30.39,10.0,South,4.6,-,N/A,,Clear,180,2012-12-12 20:53:00
4:53 PM,34.0,26.1,73,30.40,10.0,South,4.6,-,N/A,,Clear,190,2012-12-12 21:53:00
5:53 PM,32.0,25.0,75,30.41,10.0,South,3.5,-,N/A,,Clear,170,2012-12-12 22:53:00
6:53 PM,30.0,25.0,82,30.42,10.0,SSE,3.5,-,N/A,,Clear,160,2012-12-12 23:53:00
7:53 PM,28.9,24.1,82,30.42,10.0,SSE,4.6,-,N/A,,Clear,160,2012-12-13 00:53:00
8:53 PM,27.0,23.0,85,30.44,10.0,SSE,4.6,-,N/A,,Clear,160,2012-12-13 01:53:00
9:53 PM,26.1,23.0,88,30.44,10.0,SSE,4.6,-,N/A,,Clear,160,2012-12-13 02:53:00
10:53 PM,27.0,21.9,81,30.44,10.0,South,5.8,-,N/A,,Clear,180,2012-12-13 03:53:00
11:53 PM,27.0,21.9,81,30.44,10.0,SSE,5.8,-,N/A,,Clear,150,2012-12-13 04:53:00